| time (UTC) | temp C | wind direction | speed KPH | gust KPH | rain 1hr cm | rain 24hr cm | rain mn cm | humidity % | barometer mb |
| 20260510074534 | 16 | 211 | 0.0 | 0.0 | 0.00 | 0.00 | 0.00 | 1 | 1011.5 |
| 20260510074032 | 16 | 211 | 0.0 | 0.0 | 0.00 | 0.00 | 0.00 | 1 | 1011.4 |
| 20260510073530 | 17 | 211 | 0.0 | 0.0 | 0.00 | 0.00 | 0.00 | 1 | 1011.4 |
| 20260510073029 | 17 | 211 | 0.0 | 0.0 | 0.00 | 0.00 | 0.00 | 1 | 1011.4 |
| 20260510072527 | 17 | 211 | 0.0 | 0.0 | 0.00 | 0.00 | 0.00 | 1 | 1011.4 |
| 20260510072030 | 17 | 211 | 0.0 | 0.0 | 0.00 | 0.00 | 0.00 | 1 | 1011.4 |
| 20260510071535 | 17 | 211 | 0.0 | 0.0 | 0.00 | 0.00 | 0.00 | 1 | 1011.4 |
| 20260510071023 | 17 | 211 | 0.0 | 0.0 | 0.00 | 0.00 | 0.00 | 1 | 1011.4 |
| 20260510070521 | 17 | 211 | 0.0 | 0.0 | 0.00 | 0.00 | 0.00 | 1 | 1011.3 |
| 20260510070020 | 17 | 211 | 0.0 | 0.0 | 0.00 | 0.00 | 0.00 | 1 | 1011.3 |
| 20260510065519 | 17 | 211 | 0.0 | 0.0 | 0.00 | 0.00 | 0.00 | 1 | 1011.4 |
| 20260510065017 | 17 | 211 | 0.0 | 0.0 | 0.00 | 0.00 | 0.00 | 1 | 1011.4 |
| 20260510064515 | 17 | 211 | 0.0 | 0.0 | 0.00 | 0.00 | 0.00 | 1 | 1011.3 |
| 20260510064014 | 17 | 211 | 0.0 | 0.0 | 0.00 | 0.00 | 0.00 | 1 | 1011.3 |
| 20260510063516 | 17 | 211 | 0.0 | 0.0 | 0.00 | 0.00 | 0.00 | 1 | 1011.4 |
| 20260510063011 | 17 | 211 | 0.0 | 0.0 | 0.00 | 0.00 | 0.00 | 1 | 1011.5 |
| 20260510062510 | 17 | 211 | 0.0 | 0.0 | 0.00 | 0.00 | 0.00 | 1 | 1011.5 |
| 20260510062008 | 17 | 211 | 0.0 | 0.0 | 0.00 | 0.00 | 0.00 | 1 | 1011.4 |
| 20260510061507 | 17 | 211 | 0.0 | 0.0 | 0.00 | 0.00 | 0.00 | 1 | 1011.4 |
| 20260510061005 | 18 | 211 | 0.0 | 0.0 | 0.00 | 0.00 | 0.00 | 1 | 1011.5 |
| 20260510060504 | 18 | 211 | 0.0 | 3.2 | 0.00 | 0.00 | 0.00 | 1 | 1011.6 |
| 20260510060002 | 18 | 211 | 0.0 | 3.2 | 0.00 | 0.00 | 0.00 | 1 | 1011.5 |
| 20260510055501 | 18 | 211 | 0.0 | 3.2 | 0.00 | 0.00 | 0.00 | 1 | 1011.5 |
| 20260510055059 | 18 | 211 | 0.0 | 3.2 | 0.00 | 0.00 | 0.00 | 1 | 1011.3 |
| 20260510054558 | 18 | 211 | 0.0 | 3.2 | 0.00 | 0.00 | 0.00 | 1 | 1011.5 |
| 20260510054056 | 18 | 211 | 0.0 | 4.8 | 0.00 | 0.00 | 0.00 | 1 | 1011.6 |
| 20260510053555 | 18 | 211 | 0.0 | 4.8 | 0.00 | 0.00 | 0.00 | 1 | 1011.6 |
| 20260510053054 | 18 | 211 | 0.0 | 4.8 | 0.00 | 0.00 | 0.00 | 1 | 1011.6 |
| 20260510052553 | 18 | 211 | 1.6 | 4.8 | 0.00 | 0.00 | 0.00 | 1 | 1011.5 |
| 20260510052054 | 18 | 211 | 1.6 | 4.8 | 0.00 | 0.00 | 0.00 | 1 | 1011.6 |
| 20260510051550 | 18 | 211 | 1.6 | 4.8 | 0.00 | 0.00 | 0.00 | 1 | 1011.5 |
| 20260510051048 | 18 | 211 | 0.0 | 4.8 | 0.00 | 0.00 | 0.00 | 1 | 1011.5 |
| 20260510050546 | 18 | 211 | 0.0 | 0.0 | 0.00 | 0.00 | 0.00 | 1 | 1011.6 |
| 20260510050045 | 18 | 211 | 0.0 | 0.0 | 0.00 | 0.00 | 0.00 | 1 | 1011.6 |
| 20260510045544 | 18 | 211 | 0.0 | 1.6 | 0.00 | 0.00 | 0.00 | 1 | 1011.5 |
| 20260510045042 | 18 | 211 | 0.0 | 4.8 | 0.00 | 0.00 | 0.00 | 1 | 1011.6 |
| 20260510044544 | 18 | 211 | 1.6 | 4.8 | 0.00 | 0.00 | 0.00 | 1 | 1011.7 |
| 20260510044042 | 18 | 211 | 1.6 | 4.8 | 0.00 | 0.00 | 0.00 | 1 | 1011.7 |
| 20260510043538 | 18 | 211 | 1.6 | 4.8 | 0.00 | 0.00 | 0.00 | 1 | 1011.6 |
| 20260510043036 | 18 | 211 | 1.6 | 6.4 | 0.00 | 0.00 | 0.00 | 1 | 1011.7 |
| 20260510042535 | 18 | 209 | 1.6 | 4.8 | 0.00 | 0.00 | 0.00 | 1 | 1011.5 |
| 20260510042034 | 18 | 210 | 1.6 | 4.8 | 0.00 | 0.00 | 0.00 | 1 | 1011.5 |
| 20260510041532 | 18 | 131 | 0.0 | 0.0 | 0.00 | 0.00 | 0.00 | 1 | 1011.5 |
| 20260510041030 | 17 | 131 | 0.0 | 0.0 | 0.00 | 0.00 | 0.00 | 1 | 1011.5 |
| 20260510040529 | 17 | 131 | 0.0 | 0.0 | 0.00 | 0.00 | 0.00 | 1 | 1011.5 |
| 20260510040029 | 17 | 131 | 0.0 | 0.0 | 0.00 | 0.00 | 0.00 | 1 | 1011.4 |
| 20260510035527 | 17 | 131 | 0.0 | 0.0 | 0.00 | 0.00 | 0.00 | 1 | 1011.5 |
| 20260510035027 | 17 | 130 | 0.0 | 0.0 | 0.00 | 0.00 | 0.00 | 1 | 1011.5 |
| 20260510034523 | 17 | 130 | 0.0 | 0.0 | 0.00 | 0.00 | 0.00 | 1 | 1011.4 |
| 20260510034022 | 17 | 130 | 0.0 | 0.0 | 0.00 | 0.00 | 0.00 | 1 | 1011.4 |
| 20260510033520 | 17 | 130 | 0.0 | 0.0 | 0.00 | 0.00 | 0.00 | 1 | 1011.4 |
| 20260510033019 | 17 | 130 | 0.0 | 0.0 | 0.00 | 0.00 | 0.00 | 1 | 1011.4 |
| 20260510032517 | 17 | 130 | 0.0 | 0.0 | 0.00 | 0.00 | 0.00 | 1 | 1011.4 |
| 20260510032016 | 17 | 130 | 0.0 | 0.0 | 0.00 | 0.00 | 0.00 | 1 | 1011.3 |
| 20260510031532 | 17 | 130 | 0.0 | 0.0 | 0.00 | 0.00 | 0.00 | 1 | 1011.4 |
| 20260510031012 | 17 | 130 | 0.0 | 0.0 | 0.00 | 0.00 | 0.00 | 1 | 1011.3 |
| 20260510030511 | 17 | 130 | 0.0 | 0.0 | 0.00 | 0.00 | 0.00 | 1 | 1011.2 |
| 20260510030012 | 17 | 130 | 0.0 | 0.0 | 0.00 | 0.00 | 0.00 | 1 | 1011.3 |
| 20260510025509 | 17 | 130 | 0.0 | 0.0 | 0.00 | 0.00 | 0.00 | 1 | 1011.2 |
| 20260510025007 | 17 | 130 | 0.0 | 0.0 | 0.00 | 0.00 | 0.00 | 1 | 1011.2 |
| 20260510024506 | 17 | 130 | 0.0 | 0.0 | 0.00 | 0.00 | 0.00 | 1 | 1011.1 |
| 20260510024004 | 17 | 130 | 0.0 | 0.0 | 0.00 | 0.00 | 0.00 | 1 | 1011.1 |
| 20260510023502 | 17 | 130 | 0.0 | 0.0 | 0.00 | 0.00 | 0.00 | 1 | 1011.0 |
| 20260510023001 | 17 | 130 | 0.0 | 0.0 | 0.00 | 0.00 | 0.00 | 1 | 1011.1 |
| 20260510022601 | 17 | 130 | 0.0 | 0.0 | 0.00 | 0.00 | 0.00 | 1 | 1011.0 |
| 20260510022058 | 17 | 130 | 0.0 | 0.0 | 0.00 | 0.00 | 0.00 | 1 | 1010.9 |
| 20260510021557 | 18 | 130 | 0.0 | 0.0 | 0.00 | 0.00 | 0.00 | 1 | 1010.9 |
| 20260510021057 | 18 | 130 | 0.0 | 0.0 | 0.00 | 0.00 | 0.00 | 4 | 1010.8 |
| 20260510020554 | 18 | 130 | 0.0 | 0.0 | 0.00 | 0.00 | 0.00 | 8 | 1010.7 |
| 20260510020053 | 18 | 130 | 0.0 | 0.0 | 0.00 | 0.00 | 0.00 | 10 | 1010.7 |
| 20260510015552 | 18 | 130 | 0.0 | 0.0 | 0.00 | 0.00 | 0.00 | 13 | 1010.5 |
| 20260510015049 | 18 | 130 | 0.0 | 0.0 | 0.00 | 0.00 | 0.00 | 15 | 1010.4 |
| 20260510014548 | 18 | 130 | 0.0 | 0.0 | 0.00 | 0.00 | 0.00 | 18 | 1010.4 |
| 20260510014048 | 18 | 130 | 0.0 | 0.0 | 0.00 | 0.00 | 0.00 | 20 | 1010.3 |
| 20260510013544 | 18 | 130 | 0.0 | 0.0 | 0.00 | 0.00 | 0.00 | 23 | 1010.2 |
| 20260510013044 | 19 | 130 | 0.0 | 0.0 | 0.00 | 0.00 | 0.00 | 26 | 1010.3 |
| 20260510012542 | 19 | 130 | 0.0 | 0.0 | 0.00 | 0.00 | 0.00 | 28 | 1010.3 |
| 20260510012041 | 19 | 130 | 0.0 | 0.0 | 0.00 | 0.00 | 0.00 | 30 | 1010.2 |
| 20260510011551 | 19 | 130 | 0.0 | 0.0 | 0.00 | 0.00 | 0.00 | 32 | 1010.1 |
| 20260510011037 | 20 | 130 | 0.0 | 0.0 | 0.00 | 0.00 | 0.00 | 34 | 1010.1 |
| 20260510010536 | 20 | 130 | 0.0 | 0.0 | 0.00 | 0.00 | 0.00 | 36 | 1010.0 |
| 20260510010036 | 20 | 130 | 0.0 | 0.0 | 0.00 | 0.00 | 0.00 | 39 | 1010.0 |
| 20260510005534 | 20 | 130 | 0.0 | 0.0 | 0.00 | 0.00 | 0.00 | 41 | 1010.0 |
| 20260510005032 | 20 | 130 | 0.0 | 0.0 | 0.00 | 0.00 | 0.00 | 43 | 1009.9 |
| 20260510004531 | 20 | 130 | 0.0 | 0.0 | 0.00 | 0.00 | 0.00 | 46 | 1009.9 |
| 20260510004028 | 21 | 130 | 0.0 | 0.0 | 0.00 | 0.00 | 0.00 | 47 | 1009.8 |
| 20260510003527 | 21 | 130 | 0.0 | 0.0 | 0.00 | 0.00 | 0.00 | 49 | 1009.7 |
| 20260510003052 | 21 | 130 | 0.0 | 0.0 | 0.00 | 0.00 | 0.00 | 49 | 1009.7 |
| 20260510002527 | 21 | 130 | 0.0 | 0.0 | 0.00 | 0.00 | 0.00 | 50 | 1009.7 |
| 20260510002022 | 21 | 130 | 0.0 | 0.0 | 0.00 | 0.00 | 0.00 | 51 | 1009.6 |
| 20260510001523 | 21 | 130 | 0.0 | 0.0 | 0.00 | 0.00 | 0.00 | 51 | 1009.5 |
| 20260510001020 | 22 | 130 | 0.0 | 0.0 | 0.00 | 0.00 | 0.00 | 52 | 1009.5 |
| 20260510000519 | 22 | 130 | 0.0 | 0.0 | 0.00 | 0.00 | 0.00 | 52 | 1009.4 |
| 20260510000017 | 22 | 130 | 0.0 | 0.0 | 0.00 | 0.00 | 0.00 | 52 | 1009.3 |
| 20260509235515 | 22 | 130 | 0.0 | 0.0 | 0.00 | 0.00 | 0.00 | 52 | 1009.3 |
| 20260509235014 | 22 | 130 | 0.0 | 0.0 | 0.00 | 0.00 | 0.00 | 52 | 1009.2 |
| 20260509234522 | 22 | 130 | 0.0 | 0.0 | 0.00 | 0.00 | 0.00 | 52 | 1009.1 |
| 20260509234010 | 22 | 130 | 0.0 | 0.0 | 0.00 | 0.00 | 0.00 | 52 | 1009.1 |
| 20260509233511 | 22 | 130 | 0.0 | 0.0 | 0.00 | 0.00 | 0.00 | 52 | 1009.2 |
| 20260509233012 | 22 | 130 | 0.0 | 0.0 | 0.00 | 0.00 | 0.00 | 52 | 1009.2 |
| 20260509232507 | 22 | 130 | 0.0 | 0.0 | 0.00 | 0.00 | 0.00 | 52 | 1009.2 |
| 20260509232006 | 22 | 130 | 0.0 | 0.0 | 0.00 | 0.00 | 0.00 | 51 | 1009.2 |
| 20260509231504 | 23 | 129 | 0.0 | 0.0 | 0.00 | 0.00 | 0.00 | 51 | 1009.2 |
| 20260509231002 | 23 | 129 | 0.0 | 0.0 | 0.00 | 0.00 | 0.00 | 52 | 1009.1 |
| 20260509230601 | 23 | 129 | 0.0 | 0.0 | 0.00 | 0.00 | 0.00 | 51 | 1009.1 |
| 20260509230109 | 23 | 129 | 0.0 | 0.0 | 0.00 | 0.00 | 0.00 | 51 | 1009.1 |
| 20260509225558 | 23 | 129 | 0.0 | 0.0 | 0.00 | 0.00 | 0.00 | 51 | 1009.2 |
| 20260509225056 | 23 | 129 | 0.0 | 4.8 | 0.00 | 0.00 | 0.00 | 51 | 1009.0 |
| 20260509224555 | 23 | 129 | 0.0 | 4.8 | 0.00 | 0.00 | 0.00 | 51 | 1008.9 |
| 20260509224054 | 23 | 158 | 0.0 | 3.2 | 0.00 | 0.00 | 0.00 | 50 | 1009.0 |
| 20260509223552 | 23 | 213 | 0.0 | 3.2 | 0.00 | 0.00 | 0.00 | 50 | 1009.0 |
| 20260509223051 | 23 | 213 | 0.0 | 3.2 | 0.00 | 0.00 | 0.00 | 50 | 1009.0 |
| 20260509222549 | 23 | 213 | 0.0 | 0.0 | 0.00 | 0.00 | 0.00 | 50 | 1009.0 |
| 20260509222047 | 23 | 213 | 0.0 | 0.0 | 0.00 | 0.00 | 0.00 | 49 | 1009.0 |
| 20260509221546 | 23 | 213 | 0.0 | 4.8 | 0.00 | 0.00 | 0.00 | 49 | 1009.1 |
| 20260509221045 | 23 | 213 | 0.0 | 4.8 | 0.00 | 0.00 | 0.00 | 48 | 1009.0 |
| 20260509220543 | 23 | 213 | 0.0 | 4.8 | 0.00 | 0.00 | 0.00 | 49 | 1009.0 |
| 20260509220042 | 23 | 194 | 1.6 | 6.4 | 0.00 | 0.00 | 0.00 | 50 | 1009.0 |
| 20260509215543 | 23 | 196 | 0.0 | 6.4 | 0.00 | 0.00 | 0.00 | 50 | 1008.9 |
| 20260509215040 | 23 | 161 | 0.0 | 4.8 | 0.00 | 0.00 | 0.00 | 51 | 1008.9 |
| 20260509214537 | 23 | 115 | 0.0 | 4.8 | 0.00 | 0.00 | 0.00 | 51 | 1008.8 |
| 20260509214039 | 23 | 329 | 0.0 | 3.2 | 0.00 | 0.00 | 0.00 | 52 | 1008.7 |
| 20260509213534 | 23 | 329 | 0.0 | 4.8 | 0.00 | 0.00 | 0.00 | 52 | 1008.8 |
| 20260509213035 | 23 | 329 | 0.0 | 4.8 | 0.00 | 0.00 | 0.00 | 51 | 1008.8 |
| 20260509212535 | 23 | 277 | 0.0 | 3.2 | 0.00 | 0.00 | 0.00 | 50 | 1008.8 |
| 20260509212032 | 23 | 277 | 0.0 | 8.0 | 0.00 | 0.00 | 0.00 | 50 | 1008.8 |
| 20260509211528 | 23 | 277 | 1.6 | 8.0 | 0.00 | 0.00 | 0.00 | 49 | 1008.9 |
| 20260509211027 | 23 | 209 | 0.0 | 6.4 | 0.00 | 0.00 | 0.00 | 50 | 1008.8 |
| 20260509210526 | 23 | 209 | 1.6 | 6.4 | 0.00 | 0.00 | 0.00 | 49 | 1008.8 |
| 20260509210025 | 23 | 209 | 1.6 | 6.4 | 0.00 | 0.00 | 0.00 | 49 | 1008.9 |
| 20260509205522 | 23 | 72 | 1.6 | 6.4 | 0.00 | 0.00 | 0.00 | 49 | 1008.9 |
| 20260509205021 | 23 | 172 | 3.2 | 6.4 | 0.00 | 0.00 | 0.00 | 49 | 1008.7 |
| 20260509204519 | 24 | 234 | 1.6 | 9.7 | 0.00 | 0.00 | 0.00 | 49 | 1008.6 |
| 20260509204018 | 24 | 144 | 3.2 | 12.9 | 0.00 | 0.00 | 0.00 | 48 | 1008.6 |
| 20260509203516 | 24 | 192 | 3.2 | 9.7 | 0.00 | 0.00 | 0.00 | 48 | 1008.5 |
| 20260509203020 | 24 | 195 | 3.2 | 11.3 | 0.00 | 0.00 | 0.00 | 49 | 1008.5 |
| 20260509202513 | 24 | 163 | 1.6 | 16.1 | 0.00 | 0.00 | 0.00 | 48 | 1008.6 |
| 20260509202012 | 25 | 201 | 3.2 | 16.1 | 0.00 | 0.00 | 0.00 | 48 | 1008.6 |
| 20260509201511 | 25 | 221 | 1.6 | 4.8 | 0.00 | 0.00 | 0.00 | 47 | 1008.8 |
| 20260509201009 | 25 | 128 | 1.6 | 9.7 | 0.00 | 0.00 | 0.00 | 46 | 1008.9 |
| 20260509200508 | 25 | 145 | 1.6 | 9.7 | 0.00 | 0.00 | 0.00 | 45 | 1009.0 |
| 20260509200008 | 25 | 187 | 3.2 | 6.4 | 0.00 | 0.00 | 0.00 | 45 | 1009.0 |
| 20260509195508 | 25 | 200 | 1.6 | 16.1 | 0.00 | 0.00 | 0.00 | 47 | 1009.0 |
| 20260509195003 | 25 | 167 | 3.2 | 16.1 | 0.00 | 0.00 | 0.00 | 46 | 1009.1 |
| 20260509194509 | 25 | 178 | 1.6 | 11.3 | 0.00 | 0.00 | 0.00 | 47 | 1009.2 |
| 20260509194100 | 25 | 163 | 1.6 | 6.4 | 0.00 | 0.00 | 0.00 | 47 | 1009.4 |
| 20260509193559 | 25 | 229 | 1.6 | 4.8 | 0.00 | 0.00 | 0.00 | 45 | 1009.4 |
| 20260509193057 | 25 | 229 | 1.6 | 6.4 | 0.00 | 0.00 | 0.00 | 47 | 1009.4 |
| 20260509192556 | 25 | 230 | 1.6 | 9.7 | 0.00 | 0.00 | 0.00 | 47 | 1009.4 |
| 20260509192055 | 24 | 165 | 1.6 | 9.7 | 0.00 | 0.00 | 0.00 | 46 | 1009.5 |
| 20260509191554 | 24 | 190 | 1.6 | 4.8 | 0.00 | 0.00 | 0.00 | 46 | 1009.5 |
| 20260509191054 | 25 | 146 | 1.6 | 6.4 | 0.00 | 0.00 | 0.00 | 45 | 1009.4 |
| 20260509190554 | 25 | 199 | 3.2 | 6.4 | 0.00 | 0.00 | 0.00 | 45 | 1009.5 |
| 20260509190049 | 25 | 249 | 1.6 | 6.4 | 0.00 | 0.00 | 0.00 | 42 | 1009.6 |
| 20260509185548 | 26 | 248 | 1.6 | 6.4 | 0.00 | 0.00 | 0.00 | 42 | 1009.7 |
| 20260509185045 | 26 | 252 | 1.6 | 9.7 | 0.00 | 0.00 | 0.00 | 42 | 1009.6 |
| 20260509184545 | 26 | 260 | 1.6 | 9.7 | 0.00 | 0.00 | 0.00 | 45 | 1009.8 |
| 20260509184043 | 26 | 225 | 3.2 | 8.0 | 0.00 | 0.00 | 0.00 | 44 | 1009.7 |
| 20260509183545 | 25 | 219 | 1.6 | 8.0 | 0.00 | 0.00 | 0.00 | 43 | 1009.9 |
| 20260509183057 | 25 | 207 | 1.6 | 4.8 | 0.00 | 0.00 | 0.00 | 46 | 1009.9 |
| 20260509182538 | 25 | 207 | 1.6 | 6.4 | 0.00 | 0.00 | 0.00 | 46 | 1010.0 |
| 20260509182041 | 25 | 207 | 1.6 | 8.0 | 0.00 | 0.00 | 0.00 | 44 | 1010.1 |
| 20260509181544 | 25 | 227 | 3.2 | 8.0 | 0.00 | 0.00 | 0.00 | 44 | 1010.1 |
| 20260509181034 | 25 | 118 | 1.6 | 8.0 | 0.00 | 0.00 | 0.00 | 44 | 1010.3 |
| 20260509180532 | 25 | 182 | 3.2 | 8.0 | 0.00 | 0.00 | 0.00 | 43 | 1010.2 |
| 20260509180034 | 25 | 224 | 1.6 | 9.7 | 0.00 | 0.00 | 0.00 | 44 | 1010.1 |
| 20260509175531 | 25 | 155 | 1.6 | 12.9 | 0.00 | 0.00 | 0.00 | 45 | 1010.1 |
| 20260509175029 | 25 | 157 | 3.2 | 12.9 | 0.00 | 0.00 | 0.00 | 43 | 1010.4 |
| 20260509174526 | 25 | 313 | 1.6 | 6.4 | 0.00 | 0.00 | 0.00 | 46 | 1010.5 |
| 20260509174025 | 25 | 286 | 1.6 | 8.0 | 0.00 | 0.00 | 0.00 | 44 | 1010.5 |
| 20260509173524 | 25 | 302 | 3.2 | 12.9 | 0.00 | 0.00 | 0.00 | 46 | 1010.3 |
| 20260509173025 | 25 | 150 | 3.2 | 12.9 | 0.00 | 0.00 | 0.00 | 45 | 1010.5 |
| 20260509172521 | 25 | 242 | 1.6 | 6.4 | 0.00 | 0.00 | 0.00 | 46 | 1010.4 |
| 20260509172020 | 25 | 135 | 1.6 | 6.4 | 0.00 | 0.00 | 0.00 | 44 | 1010.4 |
| 20260509171520 | 25 | 136 | 3.2 | 8.0 | 0.00 | 0.00 | 0.00 | 46 | 1010.5 |
| 20260509171016 | 25 | 238 | 1.6 | 9.7 | 0.00 | 0.00 | 0.00 | 47 | 1010.6 |
| 20260509170515 | 25 | 154 | 0.0 | 11.3 | 0.00 | 0.00 | 0.00 | 47 | 1010.6 |
| 20260509170014 | 24 | 220 | 1.6 | 11.3 | 0.00 | 0.00 | 0.00 | 46 | 1010.9 |
| 20260509165511 | 24 | 178 | 3.2 | 8.0 | 0.00 | 0.00 | 0.00 | 46 | 1010.8 |
| 20260509165010 | 24 | 257 | 3.2 | 8.0 | 0.00 | 0.00 | 0.00 | 48 | 1010.9 |
| 20260509164511 | 23 | 168 | 0.0 | 12.9 | 0.00 | 0.00 | 0.00 | 49 | 1011.0 |
| 20260509164007 | 23 | 207 | 4.8 | 14.5 | 0.00 | 0.00 | 0.00 | 48 | 1011.3 |
| 20260509163508 | 23 | 182 | 1.6 | 14.5 | 0.00 | 0.00 | 0.00 | 48 | 1011.1 |
| 20260509163004 | 23 | 84 | 3.2 | 12.9 | 0.00 | 0.00 | 0.00 | 47 | 1011.0 |
| 20260509162503 | 23 | 236 | 1.6 | 8.0 | 0.00 | 0.00 | 0.00 | 49 | 1011.0 |
| 20260509162102 | 23 | 239 | 1.6 | 8.0 | 0.00 | 0.00 | 0.00 | 49 | 1011.0 |
| 20260509161600 | 23 | 208 | 1.6 | 6.4 | 0.00 | 0.00 | 0.00 | 50 | 1010.9 |
| 20260509161058 | 23 | 206 | 1.6 | 8.0 | 0.00 | 0.00 | 0.00 | 49 | 1011.2 |
| 20260509160557 | 23 | 213 | 1.6 | 14.5 | 0.00 | 0.00 | 0.00 | 50 | 1011.3 |
| 20260509160058 | 22 | 232 | 3.2 | 14.5 | 0.00 | 0.00 | 0.00 | 50 | 1011.4 |
| 20260509155554 | 22 | 227 | 3.2 | 9.7 | 0.00 | 0.00 | 0.00 | 50 | 1011.4 |
| 20260509155053 | 22 | 44 | 3.2 | 11.3 | 0.00 | 0.00 | 0.00 | 50 | 1011.5 |
| 20260509154555 | 22 | 178 | 3.2 | 9.7 | 0.00 | 0.00 | 0.00 | 50 | 1011.7 |
| 20260509154050 | 22 | 214 | 1.6 | 8.0 | 0.00 | 0.00 | 0.00 | 50 | 1012.1 |
| 20260509153548 | 22 | 202 | 0.0 | 11.3 | 0.00 | 0.00 | 0.00 | 51 | 1012.0 |
| 20260509153047 | 22 | 219 | 3.2 | 11.3 | 0.00 | 0.00 | 0.00 | 50 | 1011.8 |
| 20260509152549 | 22 | 197 | 3.2 | 11.3 | 0.00 | 0.00 | 0.00 | 50 | 1011.9 |
| 20260509152044 | 22 | 154 | 3.2 | 8.0 | 0.00 | 0.00 | 0.00 | 50 | 1011.9 |
| 20260509151544 | 22 | 105 | 3.2 | 8.0 | 0.00 | 0.00 | 0.00 | 50 | 1012.2 |
| 20260509151041 | 22 | 142 | 3.2 | 9.7 | 0.00 | 0.00 | 0.00 | 49 | 1012.3 |
| 20260509150540 | 22 | 189 | 1.6 | 8.0 | 0.00 | 0.00 | 0.00 | 49 | 1012.2 |
| 20260509150039 | 21 | 200 | 1.6 | 11.3 | 0.00 | 0.00 | 0.00 | 48 | 1012.3 |
| 20260509145537 | 21 | 227 | 3.2 | 14.5 | 0.00 | 0.00 | 0.00 | 47 | 1012.4 |
| 20260509145039 | 21 | 263 | 3.2 | 14.5 | 0.00 | 0.00 | 0.00 | 48 | 1012.3 |
| 20260509144538 | 21 | 234 | 0.0 | 9.7 | 0.00 | 0.00 | 0.00 | 44 | 1012.4 |
| 20260509144034 | 21 | 223 | 3.2 | 12.9 | 0.00 | 0.00 | 0.00 | 42 | 1012.7 |
| 20260509143531 | 20 | 74 | 3.2 | 12.9 | 0.00 | 0.00 | 0.00 | 43 | 1012.8 |
| 20260509143030 | 20 | 224 | 3.2 | 6.4 | 0.00 | 0.00 | 0.00 | 39 | 1013.1 |
| 20260509142527 | 20 | 221 | 1.6 | 6.4 | 0.00 | 0.00 | 0.00 | 41 | 1013.2 |
| 20260509142026 | 20 | 190 | 1.6 | 8.0 | 0.00 | 0.00 | 0.00 | 36 | 1013.0 |
| 20260509141525 | 20 | 130 | 3.2 | 9.7 | 0.00 | 0.00 | 0.00 | 33 | 1013.1 |
| 20260509141024 | 19 | 83 | 1.6 | 8.0 | 0.00 | 0.00 | 0.00 | 30 | 1013.1 |
| 20260509140522 | 19 | 209 | 3.2 | 8.0 | 0.00 | 0.00 | 0.00 | 28 | 1013.1 |
| 20260509140020 | 19 | 193 | 1.6 | 8.0 | 0.00 | 0.00 | 0.00 | 17 | 1012.9 |
| 20260509135519 | 18 | 169 | 1.6 | 11.3 | 0.00 | 0.00 | 0.00 | 12 | 1013.0 |
| 20260509135018 | 18 | 224 | 1.6 | 11.3 | 0.00 | 0.00 | 0.00 | 9 | 1013.1 |
| 20260509134516 | 18 | 211 | 3.2 | 8.0 | 0.00 | 0.00 | 0.00 | 1 | 1013.1 |
| 20260509134014 | 17 | 143 | 1.6 | 8.0 | 0.00 | 0.00 | 0.00 | 1 | 1013.3 |
| 20260509133513 | 17 | 171 | 3.2 | 8.0 | 0.00 | 0.00 | 0.00 | 1 | 1013.5 |
| 20260509133012 | 17 | 209 | 1.6 | 12.9 | 0.00 | 0.00 | 0.00 | 1 | 1013.5 |
| 20260509132511 | 17 | 180 | 1.6 | 6.4 | 0.00 | 0.00 | 0.00 | 1 | 1013.7 |
| 20260509132010 | 17 | 178 | 1.6 | 11.3 | 0.00 | 0.00 | 0.00 | 1 | 1013.7 |
| 20260509131508 | 17 | 165 | 3.2 | 14.5 | 0.00 | 0.00 | 0.00 | 1 | 1013.6 |
| 20260509131009 | 16 | 162 | 0.0 | 14.5 | 0.00 | 0.00 | 0.00 | 1 | 1013.5 |
| 20260509130505 | 16 | 185 | 1.6 | 4.8 | 0.00 | 0.00 | 0.00 | 1 | 1013.5 |
| 20260509130007 | 16 | 181 | 1.6 | 4.8 | 0.00 | 0.00 | 0.00 | 1 | 1013.5 |
| 20260509125504 | 16 | 170 | 0.0 | 4.8 | 0.00 | 0.00 | 0.00 | 1 | 1013.4 |
| 20260509125059 | 15 | 155 | 1.6 | 9.7 | 0.00 | 0.00 | 0.00 | 1 | 1013.4 |
| 20260509124602 | 15 | 131 | 1.6 | 9.7 | 0.00 | 0.00 | 0.00 | 1 | 1013.4 |
| 20260509124057 | 15 | 171 | 0.0 | 3.2 | 0.00 | 0.00 | 0.00 | 1 | 1013.5 |
| 20260509123555 | 15 | 171 | 0.0 | 6.4 | 0.00 | 0.00 | 0.00 | 1 | 1013.5 |
| 20260509123055 | 14 | 44 | 1.6 | 9.7 | 0.00 | 0.00 | 0.00 | 1 | 1013.5 |
| 20260509122553 | 13 | 148 | 0.0 | 4.8 | 0.00 | 0.00 | 0.00 | 1 | 1013.5 |
| 20260509122050 | 13 | 148 | 0.0 | 4.8 | 0.00 | 0.00 | 0.00 | 1 | 1013.5 |
| 20260509121550 | 13 | 128 | 0.0 | 3.2 | 0.00 | 0.00 | 0.00 | 1 | 1013.6 |
| 20260509121050 | 13 | 128 | 0.0 | 3.2 | 0.00 | 0.00 | 0.00 | 1 | 1013.7 |
| 20260509120547 | 12 | 113 | 0.0 | 3.2 | 0.00 | 0.00 | 0.00 | 1 | 1013.8 |
| 20260509120052 | 12 | 116 | 1.6 | 4.8 | 0.00 | 0.00 | 0.00 | 1 | 1013.7 |
| 20260509115543 | 12 | 125 | 1.6 | 4.8 | 0.00 | 0.00 | 0.00 | 1 | 1013.5 |
| 20260509115046 | 12 | 135 | 1.6 | 4.8 | 0.00 | 0.00 | 0.00 | 1 | 1013.5 |
| 20260509114540 | 11 | 121 | 1.6 | 4.8 | 0.00 | 0.00 | 0.00 | 1 | 1013.4 |
| 20260509114039 | 11 | 117 | 1.6 | 4.8 | 0.00 | 0.00 | 0.00 | 1 | 1013.4 |
| 20260509113537 | 11 | 144 | 0.0 | 3.2 | 0.00 | 0.00 | 0.00 | 1 | 1013.3 |
| 20260509113037 | 11 | 144 | 0.0 | 3.2 | 0.00 | 0.00 | 0.00 | 1 | 1013.4 |
| 20260509112535 | 11 | 144 | 0.0 | 3.2 | 0.00 | 0.00 | 0.00 | 1 | 1013.5 |
| 20260509112033 | 10 | 144 | 0.0 | 0.0 | 0.00 | 0.00 | 0.00 | 1 | 1013.4 |
| 20260509111532 | 10 | 144 | 0.0 | 0.0 | 0.00 | 0.00 | 0.00 | 1 | 1013.3 |
| 20260509111031 | 10 | 144 | 0.0 | 0.0 | 0.00 | 0.00 | 0.00 | 1 | 1013.3 |
| 20260509110528 | 10 | 144 | 0.0 | 0.0 | 0.00 | 0.00 | 0.00 | 1 | 1013.3 |
| 20260509110030 | 10 | 144 | 0.0 | 0.0 | 0.00 | 0.00 | 0.00 | 1 | 1013.4 |
| 20260509105528 | 10 | 144 | 0.0 | 0.0 | 0.00 | 0.00 | 0.00 | 1 | 1013.3 |
| 20260509105026 | 10 | 144 | 0.0 | 0.0 | 0.00 | 0.00 | 0.00 | 1 | 1013.4 |
| 20260509104534 | 10 | 144 | 0.0 | 0.0 | 0.00 | 0.00 | 0.00 | 1 | 1013.3 |
| 20260509104021 | 10 | 144 | 0.0 | 0.0 | 0.00 | 0.00 | 0.00 | 1 | 1013.4 |
| 20260509103519 | 10 | 144 | 0.0 | 0.0 | 0.00 | 0.00 | 0.00 | 1 | 1013.4 |
| 20260509103018 | 10 | 144 | 0.0 | 0.0 | 0.00 | 0.00 | 0.00 | 1 | 1013.4 |
| 20260509102516 | 10 | 144 | 0.0 | 0.0 | 0.00 | 0.00 | 0.00 | 1 | 1013.3 |
| 20260509102015 | 10 | 144 | 0.0 | 0.0 | 0.00 | 0.00 | 0.00 | 1 | 1013.3 |
| 20260509101515 | 10 | 144 | 0.0 | 0.0 | 0.00 | 0.00 | 0.00 | 1 | 1013.2 |
| 20260509101017 | 10 | 144 | 0.0 | 0.0 | 0.00 | 0.00 | 0.00 | 1 | 1013.3 |
| 20260509100511 | 10 | 144 | 0.0 | 0.0 | 0.00 | 0.00 | 0.00 | 1 | 1013.3 |
| 20260509100010 | 10 | 144 | 0.0 | 0.0 | 0.00 | 0.00 | 0.00 | 1 | 1013.3 |
| 20260509095508 | 10 | 144 | 0.0 | 0.0 | 0.00 | 0.00 | 0.00 | 1 | 1013.2 |
| 20260509095007 | 10 | 144 | 0.0 | 0.0 | 0.00 | 0.00 | 0.00 | 1 | 1013.2 |
| 20260509094504 | 11 | 144 | 0.0 | 0.0 | 0.00 | 0.00 | 0.00 | 1 | 1013.3 |
| 20260509094004 | 11 | 144 | 0.0 | 0.0 | 0.00 | 0.00 | 0.00 | 1 | 1013.3 |
| 20260509093503 | 11 | 144 | 0.0 | 0.0 | 0.00 | 0.00 | 0.00 | 1 | 1013.3 |
| 20260509092559 | 11 | 144 | 0.0 | 0.0 | 0.00 | 0.00 | 0.00 | 1 | 1013.3 |
| 20260509092059 | 11 | 144 | 0.0 | 0.0 | 0.00 | 0.00 | 0.00 | 1 | 1013.4 |
| 20260509091557 | 11 | 144 | 0.0 | 0.0 | 0.00 | 0.00 | 0.00 | 1 | 1013.5 |
| 20260509091055 | 11 | 144 | 0.0 | 0.0 | 0.00 | 0.00 | 0.00 | 1 | 1013.5 |
| 20260509090554 | 11 | 144 | 0.0 | 0.0 | 0.00 | 0.00 | 0.00 | 1 | 1013.4 |
| 20260509090052 | 11 | 144 | 0.0 | 0.0 | 0.00 | 0.00 | 0.00 | 1 | 1013.5 |
| 20260509085550 | 11 | 144 | 0.0 | 0.0 | 0.00 | 0.00 | 0.00 | 1 | 1013.3 |
| 20260509085050 | 11 | 144 | 0.0 | 1.6 | 0.00 | 0.00 | 0.00 | 1 | 1013.3 |
| 20260509084554 | 11 | 144 | 0.0 | 3.2 | 0.00 | 0.00 | 0.00 | 1 | 1013.2 |
| 20260509084046 | 11 | 144 | 0.0 | 3.2 | 0.00 | 0.00 | 0.00 | 1 | 1013.1 |
| 20260509083544 | 11 | 144 | 0.0 | 3.2 | 0.00 | 0.00 | 0.00 | 1 | 1013.2 |
| 20260509083042 | 11 | 144 | 0.0 | 3.2 | 0.00 | 0.00 | 0.00 | 1 | 1013.2 |
| 20260509082541 | 12 | 157 | 0.0 | 0.0 | 0.00 | 0.00 | 0.00 | 1 | 1013.3 |
| 20260509082043 | 12 | 157 | 0.0 | 0.0 | 0.00 | 0.00 | 0.00 | 1 | 1013.2 |
| 20260509081542 | 12 | 157 | 0.0 | 0.0 | 0.00 | 0.00 | 0.00 | 1 | 1013.1 |
| 20260509081036 | 12 | 157 | 0.0 | 0.0 | 0.00 | 0.00 | 0.00 | 1 | 1013.1 |
| 20260509080535 | 12 | 157 | 0.0 | 0.0 | 0.00 | 0.00 | 0.00 | 1 | 1013.2 |
| 20260509080048 | 12 | 157 | 0.0 | 0.0 | 0.00 | 0.00 | 0.00 | 1 | 1013.2 |
| 20260509075534 | 12 | 157 | 0.0 | 0.0 | 0.00 | 0.00 | 0.00 | 1 | 1013.3 |
| 20260509075033 | 12 | 157 | 0.0 | 0.0 | 0.00 | 0.00 | 0.00 | 1 | 1013.3 |